K2MST Weather Reports


time (UTC)temp
C
wind
direction
speed
KPH
gust
KPH
rain 1hr
cm
rain 24hr
cm
rain mn
cm
humidity
%
barometer
mb
20260831145020 20 180 4.8 11.3 0.00 0.00 0.00 82 1018.0
20260831144020 21 180 4.8 9.7 0.00 0.00 0.00 81 1017.9
20260831142020 21 135 3.2 9.7 0.00 0.00 0.00 78 1017.7
20260831141020 21 0.0 4.8 0.00 0.00 0.00 80 1017.7
20260831140020 20 0.0 3.2 0.00 0.00 0.00 80 1017.7
20260831135020 20 180 3.2 4.8 0.00 0.00 0.00 80 1017.7
20260831134028 20 180 1.6 4.8 0.00 0.00 0.00 81 1017.8
20260831133056 20 158 3.2 4.8 0.00 0.00 0.00 82 1017.9
20260831132029 19 158 3.2 8.0 0.00 0.00 0.00 83 1017.7
20260831131053 19 135 3.2 8.0 0.00 0.00 0.00 83 1017.7
20260831130047 18 158 4.8 8.0 0.00 0.00 0.00 84 1017.7
20260831125041 18 158 1.6 3.2 0.00 0.00 0.00 85 1017.9
20260831124021 18 158 6.4 9.7 0.00 0.00 0.00 85 1017.8
20260831123021 18 135 1.6 4.8 0.00 0.00 0.00 85 1018.1
20260831122021 18 158 4.8 8.0 0.00 0.00 0.00 86 1018.0
20260831121021 17 158 4.8 8.0 0.00 0.00 0.00 86 1018.2
20260831120023 17 158 3.2 8.0 0.00 0.00 0.00 87 1018.3
20260831115021 17 158 4.8 8.0 0.00 0.00 0.00 87 1018.3
20260831114022 17 158 4.8 6.4 0.00 0.00 0.00 87 1018.3
20260831113021 17 158 3.2 6.4 0.00 0.00 0.00 88 1018.2
20260831112041 17 158 6.4 9.7 0.00 0.00 0.00 88 1018.2
20260831111021 17 180 6.4 8.0 0.00 0.00 0.00 88 1018.2
20260831110021 17 180 4.8 8.0 0.00 0.00 0.00 88 1018.1
20260831105021 17 180 3.2 8.0 0.00 0.00 0.00 88 1017.9
20260831104025 17 180 4.8 9.7 0.00 0.00 0.00 88 1017.9
20260831103021 17 203 3.2 4.8 0.00 0.00 0.00 88 1017.8
20260831102021 17 158 3.2 6.4 0.00 0.00 0.00 88 1017.7
20260831101021 17 158 3.2 6.4 0.00 0.00 0.00 88 1017.7
20260831100021 17 180 4.8 9.7 0.00 0.00 0.00 88 1017.7
20260831095021 17 158 1.6 3.2 0.00 0.00 0.00 89 1017.5
20260831094021 17 158 1.6 3.2 0.00 0.00 0.00 89 1017.4
20260831093041 17 180 4.8 9.7 0.00 0.00 0.00 88 1017.6
20260831092021 17 180 3.2 6.4 0.00 0.00 0.00 88 1017.5
20260831091021 17 180 3.2 9.7 0.00 0.00 0.00 88 1017.5
20260831090021 17 180 3.2 4.8 0.00 0.00 0.00 88 1017.6
20260831085020 17 225 3.2 8.0 0.00 0.00 0.00 88 1017.7
20260831084041 17 180 4.8 6.4 0.00 0.00 0.00 88 1017.6
20260831083101 17 180 3.2 6.4 0.00 0.00 0.00 89 1017.6
20260831082020 17 180 3.2 4.8 0.00 0.00 0.00 88 1017.7
20260831081020 17 180 4.8 6.4 0.00 0.00 0.00 88 1017.7
20260831080021 17 180 3.2 4.8 0.00 0.00 0.00 88 1017.6
20260831075040 17 180 3.2 8.0 0.00 0.00 0.00 88 1017.5
20260831074020 17 180 3.2 6.4 0.00 0.00 0.00 88 1017.6
20260831073020 17 158 4.8 8.0 0.00 0.00 0.00 88 1017.5
20260831072042 17 158 1.6 6.4 0.00 0.00 0.00 88 1017.6
20260831071020 17 180 3.2 8.0 0.00 0.00 0.00 88 1017.7
20260831070020 17 158 3.2 6.4 0.00 0.00 0.00 88 1017.6
20260831065020 17 180 3.2 6.4 0.00 0.00 0.00 88 1017.8
20260831064020 17 158 3.2 6.4 0.00 0.00 0.00 88 1017.7
20260831063040 17 158 3.2 6.4 0.00 0.00 0.00 88 1017.6
20260831062020 17 158 4.8 8.0 0.00 0.00 0.00 88 1017.7
20260831061022 17 158 4.8 8.0 0.00 0.00 0.00 88 1017.8
20260831060020 17 158 4.8 6.4 0.00 0.00 0.00 88 1017.9
20260831055020 17 158 3.2 6.4 0.00 0.00 0.00 88 1018.0
20260831054041 17 158 3.2 4.8 0.00 0.00 0.00 88 1018.1
20260831053020 17 158 1.6 6.4 0.00 0.00 0.00 88 1018.2
20260831052020 17 0.0 3.2 0.00 0.00 0.00 88 1018.4
20260831051021 17 158 1.6 6.4 0.00 0.00 0.00 88 1018.4
20260831050020 17 158 4.8 8.0 0.00 0.00 0.00 89 1018.4
20260831045040 17 158 1.6 3.2 0.00 0.00 0.00 89 1018.3
20260831044020 17 180 1.6 6.4 0.00 0.00 0.00 88 1018.2
20260831043019 17 158 1.6 4.8 0.00 0.00 0.00 88 1018.2
20260831042019 18 180 1.6 3.2 0.00 0.00 0.00 88 1018.2
20260831041020 18 180 3.2 4.8 0.00 0.00 0.00 87 1018.1
20260831040020 18 158 3.2 6.4 0.00 0.00 0.00 87 1018.0
20260831035020 18 180 1.6 3.2 0.00 0.00 0.00 87 1018.2
20260831034021 18 158 3.2 4.8 0.00 0.00 0.00 87 1018.1
20260831033020 18 180 3.2 8.0 0.00 0.00 0.00 87 1017.9
20260831032043 18 158 3.2 6.4 0.00 0.00 0.00 87 1017.9
20260831031021 18 180 3.2 6.4 0.00 0.00 0.00 87 1017.9
20260831030041 18 180 1.6 4.8 0.00 0.00 0.00 87 1018.0
20260831025021 18 180 3.2 4.8 0.00 0.00 0.00 87 1018.0
20260831024020 19 180 1.6 4.8 0.00 0.00 0.00 86 1018.0
20260831023044 19 180 3.2 4.8 0.00 0.00 0.00 86 1017.9
20260831022020 19 0.0 1.6 0.00 0.00 0.00 85 1017.9
20260831021020 19 0.0 1.6 0.00 0.00 0.00 85 1017.8
20260831020020 19 180 1.6 3.2 0.00 0.00 0.00 85 1017.8
20260831015021 20 180 1.6 4.8 0.00 0.00 0.00 85 1017.8
20260831014020 20 180 3.2 8.0 0.00 0.00 0.00 85 1018.0
20260831013042 20 203 1.6 4.8 0.00 0.00 0.00 85 1018.1
20260831012020 20 180 1.6 4.8 0.00 0.00 0.00 84 1018.0
20260831011022 20 0.0 3.2 0.00 0.00 0.00 84 1017.9
20260831010020 20 0.0 3.2 0.00 0.00 0.00 83 1017.9
20260831005020 20 0.0 3.2 0.00 0.00 0.00 83 1018.0
20260831004020 20 248 1.6 3.2 0.00 0.00 0.00 83 1017.9
20260831003040 20 0.0 3.2 0.00 0.00 0.00 83 1017.6
20260831002020 20 248 1.6 3.2 0.00 0.00 0.00 83 1017.3
20260831001020 20 248 1.6 4.8 0.00 0.00 0.00 83 1017.2
20260831000020 20 0.0 3.2 0.00 0.00 0.00 83 1017.0
20260830235020 20 270 1.6 8.0 0.00 0.00 0.00 82 1017.0
20260830234020 20 248 1.6 4.8 0.00 0.00 0.00 83 1017.0
20260830233044 20 0.0 3.2 0.00 0.00 0.00 82 1016.9
20260830232020 20 248 1.6 4.8 0.00 0.00 0.00 83 1016.7
20260830231020 20 248 1.6 3.2 0.00 0.00 0.00 83 1016.8
20260830230041 20 225 3.2 6.4 0.00 0.00 0.00 82 1016.8
20260830225021 20 0.0 3.2 0.00 0.00 0.00 82 1016.9
20260830224020 20 225 1.6 4.8 0.00 0.00 0.00 82 1016.9
20260830223040 20 248 1.6 6.4 0.00 0.00 0.00 82 1016.8
20260830222020 20 248 3.2 6.4 0.00 0.00 0.00 82 1017.0
20260830221020 20 270 1.6 4.8 0.00 0.00 0.00 82 1016.9
20260830220020 20 270 1.6 4.8 0.00 0.00 0.00 82 1016.8
20260830215020 20 270 1.6 6.4 0.00 0.00 0.00 82 1016.9
20260830214021 20 248 3.2 6.4 0.00 0.00 0.00 83 1016.8
20260830213042 20 0.0 1.6 0.00 0.00 0.00 83 1016.8
20260830212022 20 225 1.6 4.8 0.00 0.00 0.00 83 1016.8
20260830211021 20 0.0 0.0 0.00 0.00 0.00 83 1016.9
20260830210024 20 0.0 1.6 0.00 0.00 0.00 83 1016.9
20260830205021 20 0.0 1.6 0.00 0.00 0.00 84 1017.0
20260830204023 20 0.0 3.2 0.00 0.00 0.00 85 1017.0
20260830203041 19 0.0 1.6 0.00 0.00 0.00 85 1016.9
20260830202021 19 0.0 1.6 0.00 0.00 0.00 86 1016.9
20260830201021 19 0 3.2 6.4 0.00 0.00 0.00 86 1017.1
20260830200024 19 338 3.2 8.0 0.00 0.00 0.00 85 1017.1
20260830195021 19 23 3.2 6.4 0.00 0.00 0.00 85 1017.1
20260830194021 19 0 3.2 4.8 0.00 0.00 0.00 85 1017.1
20260830193021 19 23 4.8 8.0 0.00 0.00 0.00 83 1017.2
20260830192022 20 338 3.2 6.4 0.00 0.00 0.00 83 1017.5
20260830191021 20 293 3.2 8.0 0.00 0.00 0.00 81 1017.6
20260830190041 20 293 4.8 9.7 0.00 0.00 0.00 81 1017.7
20260830185021 21 23 6.4 9.7 0.00 0.00 0.00 78 1017.7
20260830184021 21 338 8.0 14.5 0.00 0.00 0.00 76 1017.7
20260830183041 21 23 3.2 9.7 0.00 0.00 0.00 75 1017.7
20260830182021 21 293 6.4 11.3 0.00 0.00 0.00 74 1017.6
20260830181020 22 293 6.4 16.1 0.00 0.00 0.00 69 1017.6
20260830180021 22 338 8.0 14.5 0.00 0.00 0.00 65 1017.5
20260830175022 23 293 9.7 16.1 0.00 0.00 0.00 63 1017.4
20260830174041 23 293 6.4 12.9 0.00 0.00 0.00 64 1017.3
20260830173020 24 270 8.0 17.7 0.00 0.00 0.00 61 1017.3
20260830172020 23 315 4.8 8.0 0.00 0.00 0.00 60 1017.3
20260830171020 24 293 3.2 8.0 0.00 0.00 0.00 59 1017.3
20260830170020 23 270 4.8 11.3 0.00 0.00 0.00 60 1017.3
20260830165020 24 270 4.8 11.3 0.00 0.00 0.00 59 1017.1
20260830164021 24 203 6.4 16.1 0.00 0.00 0.00 60 1017.2
20260830163022 24 248 3.2 6.4 0.00 0.00 0.00 61 1017.3
20260830162040 23 203 3.2 8.0 0.00 0.00 0.00 60 1017.4
20260830161020 24 248 3.2 8.0 0.00 0.00 0.00 59 1017.4
20260830160020 24 203 3.2 9.7 0.00 0.00 0.00 59 1017.4
20260830155020 23 225 1.6 3.2 0.00 0.00 0.00 59 1017.4
20260830154020 23 248 3.2 6.4 0.00 0.00 0.00 61 1017.4
20260830153020 23 248 3.2 8.0 0.00 0.00 0.00 61 1017.5
20260830152020 24 180 1.6 6.4 0.00 0.00 0.00 60 1017.6
20260830151020 24 225 4.8 8.0 0.00 0.00 0.00 58 1017.5
20260830150023 24 0.0 1.6 0.00 0.00 0.00 59 1017.4